Location: Alpha Ridge Park
(39.3209°N, 76.9128°W)
Time: 22:41:01
(UTC-04:00)

Transit 2A - Pass Details

Date: 27 May 2019
Orbit: 593 x 966 km, 66.7° (Epoch: 15 June)

Event Time Altitude Azimuth Distance (km) Brightness Sun altitude
Rises 09:18:59 0° 260° (W) 3,606 9.0 38.9°
Reaches altitude 10° 09:22:30 10° 279° (W) 2,692 8.5 39.6°
Maximum altitude 09:26:33 17° 319° (NW) 2,221 8.2 40.4°
Drops below altitude 10° 09:30:37 10° 359° (N) 2,702 8.9 41.2°
Sets 09:34:11 0° 19° (NNE) 3,624 9.6 41.9°
